sat.trackr.live / text

‹ back to catalog

FLOCK 4H-16

NORAD 66719 · 2025-276BF

PAYLOAD ACTIVE UNKNOWN

§ Identity

Operator
Country
US
Launch date
2025-11-28
Launch site
AFWTR
Launch vehicle
Mass (kg)
RCS (m²)

Purposes: earth_obs

External: N2YO · Heavens-Above · Gunter

§ Orbital elements

Epoch: 2026-05-25T04:16:00.059808Z

Period
94.77 min
Inclination
97.4240°
Eccentricity
0.0006028
Mean motion
15.19490180 rev/d
Perigee alt
503.2 km
Apogee alt
511.5 km
Semi-major
6,885.5 km
B*
2.8476e-4
RAAN
219.1403°
Arg perigee
89.2531°
Mean anomaly
270.9394°
Rev number
2,692

§ Raw data

FLOCK 4H-161 66719U 25276BF  26145.17777847  .00005979  00000+0  28476-3 0  99962 66719  97.4240 219.1403 0006028  89.2531 270.9394 15.19490180 26922

JSON: /api/v1/satellites/66719 · /tle

For live sub-satellite position, see the globe view (requires WebGL).

§ Visibility from observer

Set your observer location to see the next 7 days of passes ≥ 10°. The values pass through the URL so the page stays shareable.

No JS? Fill the form by hand. The geolocation button needs JavaScript.